| time (UTC) | temp F | wind direction | speed knots | gust knots | rain 1hr in | rain 24hr in | rain mn in | humidity % | barometer mb |
| 20260504042129 | 49 | 244 | 0.9 | 0.9 | 0.00 | 0.00 | 0.00 | 60 | 1008.8 |
| 20260504041625 | 50 | 245 | 0.0 | 0.0 | 0.00 | 0.00 | 0.00 | 59 | 1008.7 |
| 20260504041121 | 50 | 229 | 0.0 | 0.9 | 0.00 | 0.00 | 0.00 | 59 | 1008.8 |
| 20260504040618 | 50 | 264 | 2.6 | 2.6 | 0.00 | 0.00 | 0.00 | 58 | 1008.7 |
| 20260504040115 | 51 | 214 | 4.3 | 7.0 | 0.00 | 0.00 | 0.00 | 56 | 1008.8 |
| 20260504035612 | 51 | 224 | 7.0 | 8.7 | 0.00 | 0.00 | 0.00 | 56 | 1008.9 |
| 20260504035108 | 51 | 249 | 2.6 | 2.6 | 0.00 | 0.00 | 0.00 | 56 | 1008.7 |
| 20260504034606 | 51 | 262 | 2.6 | 2.6 | 0.00 | 0.00 | 0.00 | 55 | 1008.7 |
| 20260504034103 | 51 | 208 | 7.0 | 8.7 | 0.00 | 0.00 | 0.00 | 55 | 1008.6 |
| 20260504033601 | 51 | 261 | 6.1 | 8.7 | 0.00 | 0.00 | 0.00 | 55 | 1008.6 |
| 20260504033058 | 51 | 250 | 6.1 | 7.0 | 0.00 | 0.00 | 0.00 | 55 | 1008.4 |
| 20260504032555 | 51 | 210 | 4.3 | 6.1 | 0.00 | 0.00 | 0.00 | 54 | 1008.7 |
| 20260504032052 | 51 | 244 | 1.7 | 2.6 | 0.00 | 0.00 | 0.00 | 55 | 1008.5 |
| 20260504031548 | 51 | 173 | 2.6 | 4.3 | 0.00 | 0.00 | 0.00 | 54 | 1008.8 |
| 20260504031044 | 52 | 236 | 3.5 | 5.2 | 0.00 | 0.00 | 0.00 | 54 | 1008.8 |
| 20260504030542 | 51 | 222 | 3.5 | 5.2 | 0.00 | 0.00 | 0.00 | 55 | 1008.8 |
| 20260504030038 | 52 | 258 | 3.5 | 4.3 | 0.00 | 0.00 | 0.00 | 53 | 1008.7 |
| 20260504025535 | 52 | 215 | 1.7 | 1.7 | 0.00 | 0.00 | 0.00 | 54 | 1008.7 |
| 20260504025032 | 52 | 238 | 5.2 | 6.1 | 0.00 | 0.00 | 0.00 | 53 | 1008.7 |
| 20260504024529 | 52 | 237 | 2.6 | 4.3 | 0.00 | 0.00 | 0.00 | 54 | 1008.7 |
| 20260504024026 | 52 | 320 | 3.5 | 4.3 | 0.00 | 0.00 | 0.00 | 54 | 1008.7 |
| 20260504023522 | 52 | 218 | 5.2 | 7.8 | 0.00 | 0.00 | 0.00 | 54 | 1008.6 |
| 20260504023018 | 52 | 246 | 3.5 | 5.2 | 0.00 | 0.00 | 0.00 | 54 | 1008.9 |
| 20260504022514 | 52 | 210 | 3.5 | 4.3 | 0.00 | 0.00 | 0.00 | 54 | 1008.7 |
| 20260504022011 | 52 | 225 | 2.6 | 2.6 | 0.00 | 0.00 | 0.00 | 55 | 1008.8 |
| 20260504021509 | 52 | 243 | 4.3 | 7.0 | 0.00 | 0.00 | 0.00 | 55 | 1008.8 |
| 20260504021006 | 52 | 209 | 1.7 | 1.7 | 0.00 | 0.00 | 0.00 | 54 | 1009.0 |
| 20260504020502 | 52 | 229 | 2.6 | 2.6 | 0.00 | 0.00 | 0.00 | 55 | 1008.9 |
| 20260504015959 | 52 | 249 | 1.7 | 2.6 | 0.00 | 0.00 | 0.00 | 55 | 1009.0 |
| 20260504015455 | 52 | 244 | 2.6 | 2.6 | 0.00 | 0.00 | 0.00 | 55 | 1009.2 |
| 20260504014951 | 52 | 204 | 2.6 | 2.6 | 0.00 | 0.00 | 0.00 | 54 | 1009.0 |
| 20260504014447 | 52 | 284 | 0.9 | 1.7 | 0.00 | 0.00 | 0.00 | 54 | 1009.3 |
| 20260504013944 | 52 | 225 | 1.7 | 4.3 | 0.00 | 0.00 | 0.00 | 53 | 1009.2 |
| 20260504013443 | 52 | 198 | 4.3 | 4.3 | 0.00 | 0.00 | 0.00 | 53 | 1009.1 |
| 20260504012938 | 52 | 239 | 3.5 | 5.2 | 0.00 | 0.00 | 0.00 | 52 | 1009.1 |
| 20260504012437 | 53 | 216 | 6.1 | 13.0 | 0.00 | 0.00 | 0.00 | 52 | 1009.1 |
| 20260504011934 | 52 | 266 | 5.2 | 6.1 | 0.00 | 0.00 | 0.00 | 52 | 1008.9 |
| 20260504011430 | 52 | 221 | 6.1 | 8.7 | 0.00 | 0.00 | 0.00 | 53 | 1009.2 |
| 20260504010926 | 52 | 266 | 4.3 | 5.2 | 0.00 | 0.00 | 0.00 | 53 | 1009.0 |
| 20260504010422 | 52 | 254 | 7.0 | 8.7 | 0.00 | 0.00 | 0.00 | 52 | 1008.9 |
| 20260504005919 | 52 | 201 | 10.4 | 12.2 | 0.00 | 0.00 | 0.00 | 52 | 1008.9 |
| 20260504005415 | 52 | 270 | 4.3 | 5.2 | 0.00 | 0.00 | 0.00 | 52 | 1008.9 |
| 20260504004913 | 52 | 210 | 7.0 | 9.6 | 0.00 | 0.00 | 0.00 | 52 | 1008.7 |
| 20260504004411 | 52 | 248 | 6.1 | 8.7 | 0.00 | 0.00 | 0.00 | 53 | 1008.8 |
| 20260504003908 | 52 | 245 | 4.3 | 5.2 | 0.00 | 0.00 | 0.00 | 54 | 1008.9 |
| 20260504003404 | 52 | 260 | 4.3 | 6.1 | 0.00 | 0.00 | 0.00 | 54 | 1009.1 |
| 20260504002900 | 52 | 242 | 9.6 | 11.3 | 0.00 | 0.00 | 0.00 | 53 | 1009.1 |
| 20260504002358 | 51 | 245 | 8.7 | 9.6 | 0.00 | 0.00 | 0.00 | 54 | 1009.0 |
| 20260504001855 | 51 | 239 | 6.1 | 7.0 | 0.00 | 0.00 | 0.00 | 57 | 1009.2 |
| 20260504001352 | 51 | 232 | 5.2 | 7.0 | 0.00 | 0.00 | 0.00 | 56 | 1009.4 |
| 20260504000849 | 51 | 301 | 4.3 | 6.1 | 0.00 | 0.00 | 0.00 | 56 | 1009.1 |
| 20260504000346 | 51 | 217 | 7.0 | 9.6 | 0.00 | 0.00 | 0.00 | 56 | 1009.2 |
| 20260503235843 | 51 | 290 | 9.6 | 14.8 | 0.00 | 0.00 | 0.00 | 54 | 1009.3 |
| 20260503235341 | 52 | 249 | 6.1 | 7.8 | 0.00 | 0.00 | 0.00 | 56 | 1009.2 |
| 20260503234838 | 52 | 266 | 4.3 | 6.1 | 0.00 | 0.00 | 0.00 | 54 | 1009.2 |
| 20260503234336 | 52 | 234 | 3.5 | 7.0 | 0.00 | 0.00 | 0.00 | 53 | 1008.9 |
| 20260503233834 | 52 | 258 | 7.8 | 11.3 | 0.00 | 0.00 | 0.00 | 52 | 1009.1 |
| 20260503233329 | 52 | 268 | 4.3 | 5.2 | 0.00 | 0.00 | 0.00 | 53 | 1009.2 |
| 20260503232826 | 52 | 237 | 9.6 | 11.3 | 0.00 | 0.00 | 0.00 | 52 | 1009.2 |
| 20260503232323 | 52 | 267 | 9.6 | 12.2 | 0.00 | 0.00 | 0.00 | 52 | 1008.8 |
| 20260503231821 | 52 | 235 | 4.3 | 6.1 | 0.00 | 0.00 | 0.00 | 54 | 1009.0 |
| 20260503231318 | 52 | 257 | 7.0 | 7.8 | 0.00 | 0.00 | 0.00 | 54 | 1009.1 |
| 20260503230814 | 52 | 280 | 7.0 | 7.8 | 0.00 | 0.00 | 0.00 | 53 | 1008.9 |
| 20260503230311 | 51 | 253 | 11.3 | 14.8 | 0.00 | 0.00 | 0.00 | 54 | 1009.1 |
| 20260503225809 | 52 | 240 | 9.6 | 13.0 | 0.00 | 0.00 | 0.00 | 54 | 1009.4 |
| 20260503225305 | 52 | 225 | 6.1 | 14.8 | 0.00 | 0.00 | 0.00 | 52 | 1009.1 |
| 20260503224801 | 52 | 219 | 5.2 | 7.8 | 0.00 | 0.00 | 0.00 | 51 | 1009.2 |
| 20260503224258 | 52 | 259 | 7.8 | 7.8 | 0.00 | 0.00 | 0.00 | 52 | 1009.2 |
| 20260503223756 | 52 | 273 | 8.7 | 12.2 | 0.00 | 0.00 | 0.00 | 54 | 1009.0 |
| 20260503223253 | 52 | 246 | 8.7 | 12.2 | 0.00 | 0.00 | 0.00 | 52 | 1009.1 |
| 20260503222749 | 52 | 231 | 6.1 | 7.8 | 0.00 | 0.00 | 0.00 | 54 | 1009.2 |
| 20260503222247 | 52 | 235 | 6.1 | 7.8 | 0.00 | 0.00 | 0.00 | 55 | 1009.2 |
| 20260503221746 | 52 | 321 | 7.8 | 9.6 | 0.00 | 0.00 | 0.00 | 54 | 1009.0 |
| 20260503221243 | 53 | 240 | 7.0 | 7.8 | 0.00 | 0.00 | 0.00 | 52 | 1008.8 |
| 20260503220739 | 53 | 231 | 10.4 | 13.0 | 0.00 | 0.00 | 0.00 | 51 | 1009.1 |
| 20260503220237 | 53 | 236 | 11.3 | 15.6 | 0.00 | 0.00 | 0.00 | 50 | 1009.2 |
| 20260503215733 | 54 | 247 | 10.4 | 13.0 | 0.00 | 0.00 | 0.00 | 49 | 1008.9 |
| 20260503215230 | 54 | 230 | 8.7 | 11.3 | 0.00 | 0.00 | 0.00 | 51 | 1009.0 |
| 20260503214728 | 54 | 232 | 6.1 | 7.0 | 0.00 | 0.00 | 0.00 | 52 | 1008.9 |
| 20260503214225 | 54 | 262 | 5.2 | 6.1 | 0.00 | 0.00 | 0.00 | 51 | 1008.8 |
| 20260503213723 | 54 | 265 | 4.3 | 6.1 | 0.00 | 0.00 | 0.00 | 51 | 1008.9 |
| 20260503213220 | 53 | 214 | 7.8 | 8.7 | 0.00 | 0.00 | 0.00 | 48 | 1009.0 |
| 20260503212716 | 54 | 228 | 4.3 | 7.0 | 0.00 | 0.00 | 0.00 | 50 | 1008.8 |
| 20260503212214 | 55 | 196 | 5.2 | 7.0 | 0.00 | 0.00 | 0.00 | 51 | 1009.0 |
| 20260503211712 | 55 | 269 | 4.3 | 6.1 | 0.00 | 0.00 | 0.00 | 50 | 1008.7 |
| 20260503211208 | 55 | 238 | 6.1 | 9.6 | 0.00 | 0.00 | 0.00 | 49 | 1008.8 |
| 20260503210703 | 55 | 216 | 4.3 | 5.2 | 0.00 | 0.00 | 0.00 | 51 | 1008.8 |
| 20260503210201 | 55 | 195 | 7.8 | 11.3 | 0.00 | 0.00 | 0.00 | 47 | 1008.7 |
| 20260503205656 | 55 | 228 | 10.4 | 13.0 | 0.00 | 0.00 | 0.00 | 47 | 1009.0 |
| 20260503205152 | 54 | 298 | 7.0 | 7.8 | 0.00 | 0.00 | 0.00 | 48 | 1008.8 |
| 20260503204649 | 55 | 227 | 10.4 | 15.6 | 0.00 | 0.00 | 0.00 | 47 | 1009.0 |
| 20260503204147 | 54 | 299 | 5.2 | 8.7 | 0.00 | 0.00 | 0.00 | 50 | 1008.8 |
| 20260503203643 | 56 | 253 | 8.7 | 11.3 | 0.00 | 0.00 | 0.00 | 47 | 1008.7 |
| 20260503203141 | 56 | 291 | 2.6 | 4.3 | 0.00 | 0.00 | 0.00 | 49 | 1008.8 |
| 20260503202638 | 55 | 221 | 4.3 | 6.1 | 0.00 | 0.00 | 0.00 | 50 | 1009.0 |
| 20260503202137 | 55 | 270 | 9.6 | 11.3 | 0.00 | 0.00 | 0.00 | 46 | 1009.1 |
| 20260503201634 | 54 | 291 | 6.1 | 7.8 | 0.00 | 0.00 | 0.00 | 49 | 1009.3 |
| 20260503201131 | 54 | 300 | 9.6 | 12.2 | 0.00 | 0.00 | 0.00 | 46 | 1009.3 |
| 20260503200627 | 55 | 224 | 9.6 | 14.8 | 0.00 | 0.00 | 0.00 | 47 | 1009.2 |
| 20260503200124 | 55 | 264 | 8.7 | 11.3 | 0.00 | 0.00 | 0.00 | 47 | 1009.6 |
| 20260503195621 | 55 | 278 | 7.0 | 7.8 | 0.00 | 0.00 | 0.00 | 46 | 1009.2 |
| 20260503195118 | 56 | 210 | 7.8 | 9.6 | 0.00 | 0.00 | 0.00 | 46 | 1009.7 |
| 20260503194615 | 55 | 253 | 4.3 | 6.1 | 0.00 | 0.00 | 0.00 | 45 | 1009.7 |
| 20260503194110 | 55 | 243 | 4.3 | 6.1 | 0.00 | 0.00 | 0.00 | 45 | 1009.3 |
| 20260503193607 | 54 | 194 | 7.0 | 8.7 | 0.00 | 0.00 | 0.00 | 44 | 1009.9 |
| 20260503193102 | 54 | 243 | 7.0 | 8.7 | 0.00 | 0.00 | 0.00 | 47 | 1009.8 |
| 20260503192558 | 55 | 247 | 6.1 | 7.0 | 0.00 | 0.00 | 0.00 | 48 | 1009.9 |
| 20260503192054 | 53 | 268 | 6.1 | 8.7 | 0.00 | 0.00 | 0.00 | 48 | 1010.0 |
| 20260503191551 | 54 | 226 | 10.4 | 12.2 | 0.00 | 0.00 | 0.00 | 46 | 1010.1 |
| 20260503191048 | 53 | 262 | 7.8 | 9.6 | 0.00 | 0.00 | 0.00 | 46 | 1010.2 |
| 20260503190545 | 53 | 273 | 6.1 | 7.8 | 0.00 | 0.00 | 0.00 | 47 | 1010.1 |
| 20260503190042 | 54 | 330 | 6.1 | 7.8 | 0.00 | 0.00 | 0.00 | 47 | 1010.1 |
| 20260503185539 | 54 | 252 | 7.0 | 11.3 | 0.00 | 0.00 | 0.00 | 44 | 1010.1 |
| 20260503185038 | 53 | 247 | 4.3 | 5.2 | 0.00 | 0.00 | 0.00 | 47 | 1010.4 |
| 20260503184535 | 53 | 250 | 6.1 | 8.7 | 0.00 | 0.00 | 0.00 | 44 | 1010.3 |
| 20260503184031 | 53 | 286 | 3.5 | 5.2 | 0.00 | 0.00 | 0.00 | 47 | 1010.5 |
| 20260503183528 | 52 | 260 | 4.3 | 7.0 | 0.00 | 0.00 | 0.00 | 47 | 1010.7 |
| 20260503183025 | 52 | 231 | 8.7 | 9.6 | 0.00 | 0.00 | 0.00 | 44 | 1010.7 |
| 20260503182524 | 52 | 266 | 6.1 | 8.7 | 0.00 | 0.00 | 0.00 | 46 | 1010.8 |
| 20260503182021 | 52 | 232 | 7.8 | 8.7 | 0.00 | 0.00 | 0.00 | 47 | 1010.9 |
| 20260503181518 | 52 | 225 | 8.7 | 11.3 | 0.00 | 0.00 | 0.00 | 47 | 1011.0 |
| 20260503181014 | 51 | 224 | 10.4 | 13.0 | 0.00 | 0.00 | 0.00 | 45 | 1011.0 |
| 20260503180512 | 51 | 205 | 8.7 | 11.3 | 0.00 | 0.00 | 0.00 | 46 | 1011.1 |
| 20260503180009 | 51 | 272 | 8.7 | 9.6 | 0.00 | 0.00 | 0.00 | 48 | 1011.2 |
| 20260503175506 | 50 | 267 | 8.7 | 9.6 | 0.00 | 0.00 | 0.00 | 48 | 1011.3 |
| 20260503175003 | 50 | 258 | 7.8 | 11.3 | 0.00 | 0.00 | 0.00 | 49 | 1011.4 |
| 20260503174501 | 50 | 273 | 7.8 | 9.6 | 0.00 | 0.00 | 0.00 | 50 | 1011.3 |
| 20260503173956 | 49 | 257 | 7.0 | 9.6 | 0.00 | 0.00 | 0.00 | 52 | 1011.5 |
| 20260503173451 | 50 | 330 | 7.0 | 7.8 | 0.00 | 0.00 | 0.00 | 52 | 1011.4 |
| 20260503172948 | 50 | 280 | 6.1 | 7.0 | 0.00 | 0.00 | 0.00 | 47 | 1011.4 |
| 20260503172446 | 50 | 283 | 7.0 | 8.7 | 0.00 | 0.00 | 0.00 | 50 | 1011.5 |
| 20260503171942 | 50 | 276 | 5.2 | 7.0 | 0.00 | 0.00 | 0.00 | 50 | 1011.5 |
| 20260503171439 | 49 | 289 | 6.1 | 7.0 | 0.00 | 0.00 | 0.00 | 47 | 1011.7 |
| 20260503170937 | 49 | 245 | 6.1 | 7.0 | 0.00 | 0.00 | 0.00 | 46 | 1011.5 |
| 20260503170432 | 50 | 249 | 4.3 | 7.0 | 0.00 | 0.00 | 0.00 | 45 | 1011.7 |
| 20260503150825 | 47 | 268 | 6.1 | 7.8 | 0.00 | 0.00 | 0.00 | 65 | 1012.5 |
| 20260503150321 | 47 | 272 | 5.2 | 6.1 | 0.00 | 0.00 | 0.00 | 62 | 1012.1 |
| 20260503140245 | 44 | 292 | 3.5 | 4.3 | 0.00 | 0.00 | 0.00 | 65 | 1012.6 |
| 20260503131215 | 42 | 227 | 4.3 | 5.2 | 0.00 | 0.00 | 0.00 | 71 | 1012.9 |
| 20260503130713 | 42 | 247 | 4.3 | 5.2 | 0.00 | 0.00 | 0.00 | 71 | 1013.0 |
| 20260503130210 | 42 | 273 | 1.7 | 1.7 | 0.00 | 0.00 | 0.00 | 74 | 1013.0 |
| 20260503120135 | 38 | 259 | 1.7 | 2.6 | 0.00 | 0.00 | 0.00 | 84 | 1013.0 |
| 20260503110603 | 34 | 240 | 0.0 | 0.0 | 0.00 | 0.00 | 0.00 | 77 | 1012.7 |
| 20260503090450 | 33 | 242 | 1.7 | 1.7 | 0.00 | 0.00 | 0.00 | 90 | 1012.8 |
| 20260503081416 | 34 | 254 | 1.7 | 1.7 | 0.00 | 0.00 | 0.00 | 90 | 1012.7 |
| 20260503080913 | 34 | 240 | 1.7 | 1.7 | 0.00 | 0.00 | 0.00 | 90 | 1012.6 |
| 20260503080410 | 34 | 239 | 1.7 | 1.7 | 0.00 | 0.00 | 0.00 | 90 | 1012.7 |
| 20260503072846 | 34 | 250 | 1.7 | 1.7 | 0.00 | 0.00 | 0.00 | 90 | 1012.8 |
| 20260503072343 | 34 | 270 | 2.6 | 2.6 | 0.00 | 0.00 | 0.00 | 90 | 1012.7 |
| 20260503071840 | 34 | 231 | 3.5 | 4.3 | 0.00 | 0.00 | 0.00 | 90 | 1012.9 |
| 20260503071337 | 34 | 227 | 2.6 | 4.3 | 0.00 | 0.00 | 0.00 | 90 | 1012.7 |
| 20260503070833 | 34 | 215 | 2.6 | 4.3 | 0.00 | 0.00 | 0.00 | 90 | 1012.9 |
| 20260503070332 | 34 | 251 | 1.7 | 2.6 | 0.00 | 0.00 | 0.00 | 91 | 1012.7 |
| 20260503060250 | 35 | 247 | 4.3 | 6.1 | 0.00 | 0.00 | 0.00 | 88 | 1013.0 |
| 20260503054738 | 35 | 242 | 2.6 | 2.6 | 0.00 | 0.00 | 0.00 | 88 | 1013.1 |
| 20260503054234 | 36 | 293 | 4.3 | 5.2 | 0.00 | 0.00 | 0.00 | 87 | 1012.9 |
| 20260503053732 | 36 | 290 | 3.5 | 4.3 | 0.00 | 0.00 | 0.00 | 87 | 1013.3 |
| 20260503053231 | 36 | 233 | 2.6 | 2.6 | 0.00 | 0.00 | 0.00 | 87 | 1013.2 |
| 20260503052727 | 36 | 326 | 2.6 | 2.6 | 0.00 | 0.00 | 0.00 | 87 | 1013.4 |
| 20260503052224 | 36 | 313 | 1.7 | 2.6 | 0.00 | 0.00 | 0.00 | 87 | 1013.1 |
| 20260503051718 | 36 | 290 | 1.7 | 1.7 | 0.00 | 0.00 | 0.00 | 86 | 1013.3 |
| 20260503051217 | 36 | 243 | 2.6 | 2.6 | 0.00 | 0.00 | 0.00 | 86 | 1013.3 |
| 20260503050713 | 36 | 293 | 3.5 | 5.2 | 0.00 | 0.00 | 0.00 | 85 | 1013.5 |
| 20260503050209 | 36 | 245 | 2.6 | 4.3 | 0.00 | 0.00 | 0.00 | 84 | 1013.4 |
| 20260503045707 | 36 | 256 | 2.6 | 2.6 | 0.00 | 0.00 | 0.00 | 84 | 1013.4 |
| 20260503045204 | 36 | 254 | 3.5 | 4.3 | 0.00 | 0.00 | 0.00 | 84 | 1013.5 |
| 20260503044701 | 36 | 227 | 2.6 | 2.6 | 0.00 | 0.00 | 0.00 | 84 | 1013.4 |
| 20260503044158 | 37 | 270 | 1.7 | 2.6 | 0.00 | 0.00 | 0.00 | 84 | 1013.5 |
| 20260503043655 | 37 | 224 | 2.6 | 4.3 | 0.00 | 0.00 | 0.00 | 84 | 1013.6 |
| 20260503043152 | 37 | 225 | 1.7 | 2.6 | 0.00 | 0.00 | 0.00 | 84 | 1013.6 |
| 20260503042648 | 37 | 251 | 1.7 | 1.7 | 0.00 | 0.00 | 0.00 | 84 | 1013.6 |